Temp
-3 -3 -2 -3 -3 -4 -5 -5 -6 -7 -8 -7 -7 -6 -6 -6 -5 -5 -5 -5 -5 -4 -4 -4 -4 -4 -4 -5 -5 -5 -5 -5 -5 -6 -6 -6 -6 -6 -6 -6 -6 -6 -6 -6
-2 -2 -3 -4 -4 -5 -5 -5 -5 -8 -7 -7 -6 -7 -6 -5 -5 -5 -4 -5 -5 -4 -4 -4 -4 -4 -4 -4 -4 -5 -5 -5 -5 -5 -5 -6 -6 -6 -6 -6 -6 -6 -6 -6
-3 -3 -4 -4 -4 -4 -5 -5 -5 -8 -7 -7 -7 -7 -6 -6 -6 -5 -4 -5 -5 -5 -4 -4 -4 -4 -4 -4 -4 -4 -4 -4 -5 -5 -5 -5 -5 -6 -6 -6 -6 -7 -6 -6
-3 -3 -3 -4 -4 -4 -4 -5 -5 -7 -7 -7 -7 -6 -7 -7 -5 -5 -5 -5 -5 -5 -4 -4 -4 -3 -3 -3 -4 -4 -4 -4 -4 -5 -5 -5 -5 -5 -6 -6 -6 -6 -6 -6
-3 -3 -3 -2 -3 -4 -3 -6 -6 -6 -7 -8 -7 -6 -6 -6 -6 -5 -6 -6 -5 -5 -4 -4 -4 -4 -3 -4 -4 -4 -4 -4 -4 -5 -4 -5 -5 -5 -5 -6 -6 -6 -6 -6
-3 -3 -3 -3 -3 -4 -4 -5 -6 -6 -7 -8 -7 -7 -6 -7 -5 -6 -6 -5 -5 -5 -5 -5 -5 -5 -4 -4 -4 -4 -4 -5 -5 -4 -5 -5 -5 -6 -5 -6 -6 -6 -6 -6
-3 -3 -3 -3 -3 -4 -5 -5 -6 -6 -6 -5 -7 -7 -4 -6 -7 -6 -5 -6 -5 -5 -5 -5 -5 -6 -5 -5 -6 -6 -6 -5 -5 -5 -5 -5 -5 -6 -6 -6 -6 -6 -6 -6
-3 -3 -3 -3 -3 -3 -4 -5 -4 -5 -5 -5 -6 -7 -3 -5 -6 -6 -6 -5 -4 -6 -6 -5 -6 -6 -6 -6 -6 -6 -6 -5 -5 -5 -6 -6 -6 -6 -6 -6 -6 -6 -6 -7
-4 -3 -4 -3 -4 -4 -4 -4 -5 -6 -6 -6 -5 -5 -5 -5 -6 -6 -6 -6 -6 -7 -7 -5 -7 -6 -6 -7 -6 -6 -6 -6 -6 -6 -6 -6 -6 -6 -6 -6 -6 -7 -7 -7
-4 -4 -5 -4 -4 -4 -5 -5 -6 -6 -5 -5 -5 -5 -5 -5 -5 -5 -6 -5 -6 -6 -5 -6 -6 -6 -6 -6 -6 -6 -7 -6 -6 -6 -6 -6 -6 -6 -6 -6 -7 -7 -8 -7
-6 -5 -5 -5 -5 -5 -4 -4 -6 -7 -7 -6 -5 -4 -5 -6 -6 -5 -5 -5 -6 -5 -5 -5 -5 -6 -6 -6 -6 -6 -7 -7 -7 -6 -6 -5 -6 -6 -7 -6 -7 -8 -7 -7
-6 -7 -6 -4 -5 -6 -5 -4 -6 -5 -6 -7 -7 -4 -5 -6 -6 -5 -6 -6 -6 -5 -5 -6 -6 -6 -6 -6 -6 -7 -7 -7 -7 -6 -6 -6 -5 -5 -6 -7 -7 -7 -8 -7
-9 -7 -7 -6 -6 -5 -5 -6 -5 -6 -6 -5 -7 -3 -5 -5 -6 -5 -7 -7 -6 -7 -7 -7 -7 -7 -6 -6 -6 -7 -7 -7 -7 -7 -6 -6 -6 -6 -7 -7 -7 -8 -8 -7
-10 -9 -7 -5 -5 -6 -6 -7 -7 -6 -6 -4 -4 -5 -5 -5 -6 -7 -7 -7 -7 -7 -7 -7 -7 -7 -7 -5 -6 -6 -7 -7 -7 -7 -7 -7 -7 -7 -7 -8 -8 -8 -8 -8
-9 -10 -8 -6 -7 -7 -6 -8 -8 -6 -4 -5 -5 -6 -5 -5 -6 -6 -7 -7 -7 -8 -7 -7 -7 -7 -6 -5 -6 -6 -7 -7 -7 -7 -7 -7 -8 -8 -8 -8 -8 -8 -8 -8
-9 -10 -10 -10 -8 -8 -8 -8 -8 -8 -7 -6 -6 -5 -7 -6 -6 -7 -7 -6 -8 -8 -8 -7 -7 -7 -7 -6 -6 -6 -6 -6 -7 -8 -7 -7 -8 -8 -8 -8 -8 -8 -8 -8
-10 -10 -10 -10 -10 -10 -9 -7 -8 -8 -8 -8 -6 -5 -7 -7 -7 -8 -8 -8 -8 -8 -8 -8 -8 -8 -7 -7 -6 -6 -6 -6 -7 -7 -8 -7 -8 -8 -8 -8 -8 -9 -9 -8
-10 -10 -10 -10 -10 -10 -5 -8 -8 -8 -8 -8 -8 -7 -7 -6 -7 -7 -8 -8 -7 -6 -8 -8 -8 -9 -8 -8 -7 -7 -6 -6 -6 -7 -8 -8 -8 -8 -8 -8 -8 -8 -9 -9
-12 -12 -11 -11 -11 -10 -10 -8 -9 -9 -9 -8 -9 -9 -8 -7 -7 -6 -7 -7 -8 -6 -7 -6 -7 -9 -9 -9 -7 -8 -7 -6 -6 -7 -8 -8 -8 -8 -8 -8 -8 -8 -8 -9
-12 -12 -12 -12 -11 -11 -9 -9 -9 -9 -9 -9 -9 -9 -9 -7 -7 -7 -7 -7 -7 -8 -8 -7 -8 -7 -7 -9 -8 -8 -7 -7 -7 -8 -8 -8 -8 -8 -8 -8 -9 -8 -9 -9
-13 -13 -13 -12 -12 -11 -10 -10 -9 -10 -9 -9 -8 -9 -8 -8 -6 -6 -7 -7 -7 -7 -8 -8 -8 -8 -8 -8 -9 -7 -7 -7 -7 -8 -8 -8 -8 -8 -8 -9 -8 -9 -9 -10
-15 -13 -13 -13 -12 -12 -11 -11 -10 -10 -10 -9 -8 -8 -9 -9 -8 -8 -7 -7 -7 -7 -7 -7 -8 -8 -9 -8 -8 -7 -7 -7 -8 -8 -8 -8 -8 -8 -8 -8 -8 -8 -9 -10
-14 -14 -13 -12 -13 -13 -12 -11 -10 -11 -10 -9 -9 -8 -8 -8 -8 -8 -8 -8 -9 -8 -8 -8 -7 -8 -9 -9 -9 -8 -7 -8 -8 -8 -8 -8 -8 -8 -8 -8 -8 -9 -9 -10
-14 -13 -13 -13 -12 -12 -11 -11 -11 -9 -9 -10 -10 -9 -8 -9 -9 -8 -8 -8 -8 -8 -9 -10 -9 -8 -8 -8 -9 -9 -8 -8 -8 -9 -8 -8 -8 -8 -8 -8 -9 -10 -9 -9
-14 -14 -13 -13 -11 -12 -12 -11 -10 -10 -10 -10 -11 -10 -10 -9 -9 -9 -9 -9 -9 -9 -9 -9 -9 -10 -9 -10 -10 -9 -9 -9 -9 -9 -8 -8 -8 -9 -8 -8 -9 -9 -9 -9
-14 -14 -13 -12 -11 -11 -11 -11 -11 -10 -10 -10 -10 -9 -10 -10 -9 -9 -9 -8 -8 -9 -10 -10 -9 -10 -10 -10 -10 -10 -9 -9 -9 -9 -9 -8 -9 -9 -9 -9 -10 -10 -10 -10
Height
5861 5861 5866 5871 5875 5882 5886 5888 5889 5895 5900 5898 5898 5900 5900 5901 5899 5901 5903 5901 5902 5903 5906 5908 5911 5914 5916 5918 5920 5922 5923 5924 5925 5926 5927 5928 5929 5931 5932 5933 5934 5935 5935 5935
5856 5857 5864 5867 5869 5874 5880 5884 5886 5890 5894 5894 5897 5897 5902 5899 5902 5902 5901 5900 5902 5904 5906 5908 5911 5913 5915 5917 5920 5921 5922 5924 5924 5925 5926 5927 5928 5930 5931 5932 5932 5933 5934 5933
5853 5857 5857 5860 5863 5867 5873 5879 5883 5885 5887 5889 5889 5891 5891 5897 5898 5899 5898 5898 5901 5905 5907 5907 5909 5911 5914 5916 5917 5919 5921 5921 5923 5924 5924 5925 5927 5928 5929 5931 5931 5931 5931 5931
5848 5850 5850 5852 5857 5863 5867 5876 5882 5881 5882 5881 5883 5885 5888 5892 5891 5892 5894 5896 5900 5903 5907 5908 5910 5911 5912 5913 5915 5917 5918 5919 5921 5922 5923 5923 5925 5926 5927 5927 5927 5928 5928 5928
5847 5845 5846 5847 5850 5856 5867 5872 5877 5879 5879 5875 5880 5879 5880 5887 5886 5889 5892 5895 5898 5901 5904 5908 5909 5910 5912 5913 5914 5915 5916 5917 5918 5919 5920 5921 5922 5924 5925 5925 5925 5925 5924 5925
5840 5839 5840 5844 5846 5849 5861 5863 5869 5872 5873 5869 5874 5876 5882 5881 5882 5884 5892 5893 5896 5898 5901 5904 5906 5907 5909 5911 5912 5912 5913 5914 5915 5916 5917 5918 5919 5921 5922 5922 5922 5922 5922 5922
5835 5834 5835 5836 5839 5842 5849 5854 5857 5860 5859 5858 5869 5869 5875 5881 5883 5885 5890 5890 5895 5895 5899 5901 5904 5905 5905 5906 5908 5908 5908 5910 5912 5912 5914 5914 5915 5917 5918 5919 5920 5919 5919 5920
5821 5824 5831 5834 5831 5836 5838 5843 5845 5845 5851 5857 5863 5857 5866 5879 5880 5884 5883 5885 5885 5888 5892 5895 5897 5901 5902 5902 5903 5905 5904 5904 5907 5908 5909 5911 5911 5913 5914 5916 5916 5916 5917 5918
5813 5816 5825 5824 5828 5829 5832 5830 5845 5845 5850 5852 5855 5859 5866 5870 5874 5876 5876 5874 5879 5882 5884 5889 5892 5895 5898 5899 5900 5901 5901 5901 5902 5904 5904 5906 5906 5908 5911 5912 5913 5914 5913 5915
5803 5806 5813 5818 5820 5821 5821 5831 5833 5832 5835 5837 5846 5852 5857 5865 5867 5870 5874 5878 5879 5879 5875 5882 5884 5890 5894 5896 5896 5898 5898 5898 5898 5899 5900 5900 5900 5903 5907 5909 5910 5912 5911 5911
5793 5794 5802 5805 5805 5812 5816 5816 5820 5827 5829 5829 5836 5838 5853 5860 5864 5866 5868 5871 5872 5872 5874 5879 5879 5884 5890 5892 5893 5894 5895 5895 5895 5895 5896 5896 5896 5899 5903 5905 5906 5908 5911 5909
5777 5784 5785 5789 5796 5801 5807 5810 5815 5813 5820 5824 5829 5829 5849 5856 5858 5859 5860 5865 5866 5863 5861 5864 5873 5880 5883 5886 5889 5890 5891 5892 5892 5893 5893 5893 5893 5896 5898 5901 5903 5905 5905 5907
5766 5763 5771 5778 5782 5784 5789 5799 5804 5810 5816 5813 5818 5819 5841 5847 5848 5849 5851 5855 5857 5859 5864 5862 5868 5872 5877 5882 5885 5886 5887 5888 5888 5889 5890 5890 5891 5893 5895 5897 5899 5899 5900 5901
5750 5748 5747 5756 5769 5778 5780 5787 5794 5799 5799 5805 5803 5816 5827 5840 5842 5841 5843 5848 5849 5848 5857 5860 5862 5865 5870 5877 5879 5880 5882 5884 5885 5886 5887 5888 5889 5890 5891 5893 5895 5895 5896 5895
5719 5722 5732 5742 5756 5767 5772 5778 5782 5785 5792 5794 5804 5809 5817 5829 5834 5836 5838 5840 5843 5846 5851 5855 5856 5858 5863 5870 5873 5875 5877 5878 5880 5882 5884 5884 5885 5886 5887 5888 5888 5890 5892 5891
5703 5709 5721 5727 5738 5749 5758 5766 5771 5776 5783 5786 5793 5796 5808 5819 5824 5829 5830 5833 5836 5840 5840 5847 5850 5853 5855 5859 5866 5870 5872 5874 5874 5876 5880 5879 5879 5881 5882 5882 5883 5884 5884 5885
5690 5698 5709 5713 5725 5735 5744 5745 5759 5769 5773 5777 5779 5790 5799 5804 5814 5819 5823 5825 5826 5831 5836 5840 5844 5844 5848 5852 5856 5858 5864 5867 5867 5869 5872 5873 5874 5875 5876 5876 5876 5878 5878 5878
5677 5685 5692 5701 5713 5719 5725 5742 5750 5757 5765 5771 5772 5780 5785 5792 5802 5806 5811 5812 5815 5819 5826 5825 5833 5839 5842 5844 5846 5850 5854 5858 5860 5862 5865 5866 5868 5869 5870 5869 5870 5871 5871 5871
5664 5673 5681 5687 5696 5707 5721 5730 5740 5748 5755 5762 5765 5771 5775 5781 5789 5796 5799 5803 5805 5809 5815 5819 5821 5827 5831 5831 5838 5839 5843 5849 5850 5854 5858 5860 5861 5862 5862 5863 5863 5862 5863 5863
5654 5660 5667 5677 5684 5692 5709 5724 5735 5741 5745 5749 5754 5757 5761 5768 5774 5781 5786 5790 5796 5799 5802 5807 5814 5815 5814 5819 5827 5833 5836 5837 5840 5844 5849 5852 5854 5855 5855 5856 5855 5855 5855 5854
5635 5644 5649 5663 5675 5687 5700 5716 5728 5727 5734 5738 5745 5750 5755 5759 5765 5770 5776 5783 5786 5789 5793 5797 5801 5804 5810 5812 5814 5820 5826 5829 5833 5835 5838 5841 5844 5846 5847 5847 5847 5846 5845 5844
5612 5627 5639 5658 5671 5680 5695 5710 5716 5716 5721 5730 5736 5743 5746 5751 5754 5758 5763 5770 5775 5778 5781 5785 5788 5793 5797 5801 5803 5807 5811 5820 5823 5824 5826 5829 5833 5835 5838 5838 5836 5835 5835 5832
5616 5628 5634 5647 5663 5668 5689 5696 5698 5703 5712 5719 5725 5729 5734 5737 5743 5748 5752 5755 5761 5763 5769 5773 5778 5784 5786 5788 5792 5797 5801 5804 5812 5811 5814 5817 5820 5823 5826 5827 5825 5827 5825 5822
5613 5621 5631 5637 5646 5660 5669 5677 5686 5693 5698 5708 5715 5721 5727 5732 5738 5739 5742 5746 5750 5750 5753 5760 5763 5768 5771 5775 5780 5783 5788 5793 5799 5799 5803 5806 5807 5812 5815 5814 5816 5815 5814 5814
5607 5616 5629 5632 5644 5658 5663 5670 5675 5684 5696 5695 5705 5713 5718 5723 5726 5728 5731 5734 5736 5739 5744 5749 5752 5754 5759 5761 5764 5768 5772 5778 5785 5790 5792 5793 5795 5800 5801 5804 5804 5803 5804 5801
5603 5615 5625 5634 5641 5646 5650 5656 5663 5676 5683 5685 5696 5703 5708 5712 5715 5718 5721 5723 5725 5728 5732 5735 5737 5741 5745 5748 5751 5754 5758 5764 5772 5774 5777 5779 5784 5786 5788 5790 5792 5792 5791 5790
Wind_Speed
30 31 23 20 20 20 23 24 17 10 20 24 22 16 15 11 14 10 9 4 5 6 8 10 10 10 9 8 7 7 7 6 4 4 4 4 5 5 3 1 2 3 5 6
22 24 24 23 23 24 27 24 19 17 27 24 20 19 18 16 18 17 9 6 6 7 8 9 9 9 9 7 7 7 7 6 6 6 5 5 6 5 4 3 4 6 8 10
15 12 26 28 29 26 27 25 22 25 31 24 27 19 14 17 16 19 9 5 7 10 10 11 11 11 10 9 9 7 7 7 7 7 7 7 7 6 6 5 5 8 11 13
18 19 25 30 32 29 27 24 23 30 21 29 22 20 24 21 14 12 12 6 7 9 10 9 9 9 9 9 8 9 9 10 8 9 9 9 9 8 6 8 9 10 12 13
12 21 21 24 29 33 18 31 30 33 26 33 24 35 33 26 29 20 18 18 9 9 11 9 10 11 10 11 12 12 12 12 12 11 12 11 13 12 10 10 12 14 12 10
22 22 23 20 26 33 25 31 38 37 31 35 29 32 25 35 25 26 21 27 21 12 10 10 8 12 14 15 17 17 18 17 16 16 16 16 16 16 14 12 12 11 5 7
25 29 25 26 27 29 35 36 41 45 46 46 35 36 25 23 22 26 26 24 23 16 9 14 13 10 17 18 17 17 20 20 18 16 17 19 19 18 16 13 10 6 4 5
33 34 28 24 27 29 31 42 45 52 52 45 40 45 30 17 17 23 27 27 24 24 22 12 9 8 11 15 16 14 16 18 23 23 22 22 20 20 17 13 6 2 2 1
36 36 29 32 27 32 32 38 37 45 45 50 46 42 26 22 26 25 30 35 27 41 43 18 11 11 14 17 16 15 12 12 14 17 22 22 21 20 15 9 3 1 2 4
39 40 34 33 33 35 37 32 33 45 49 53 44 46 31 22 28 32 36 36 31 26 42 23 11 11 13 20 20 16 10 12 11 12 14 17 21 19 12 5 4 3 1 6
41 43 40 40 44 40 38 40 43 37 46 49 47 50 33 33 28 28 34 27 32 30 27 30 17 25 24 23 24 14 10 12 11 9 9 12 15 13 9 5 4 6 4 7
42 42 48 48 45 40 41 41 42 47 44 50 52 46 34 30 23 28 26 29 31 32 28 20 22 28 20 22 18 14 12 12 13 11 9 7 6 6 7 6 7 5 8 4
37 50 48 51 50 50 48 42 44 44 45 48 48 42 37 37 38 41 38 38 29 24 20 27 31 33 22 23 20 18 15 13 16 13 10 5 5 5 6 7 8 9 7 8
52 52 57 61 57 50 50 46 44 43 48 48 50 42 36 44 41 39 34 37 27 12 30 36 41 34 31 24 24 22 20 16 18 16 13 8 7 7 7 8 10 9 9 10
62 59 61 59 50 54 52 44 43 46 47 48 43 50 42 47 49 46 37 30 28 29 31 36 40 40 37 30 24 21 17 20 23 21 15 11 14 12 10 9 13 11 8 11
71 67 57 56 56 50 59 48 44 44 41 43 42 46 50 43 40 40 45 41 28 31 32 38 39 46 35 34 36 33 30 24 26 25 19 16 17 17 13 14 15 13 13 13
72 67 57 61 55 50 49 64 52 41 39 38 45 40 41 54 50 33 30 42 44 42 39 36 38 42 40 40 42 44 38 28 29 28 24 22 17 19 19 17 17 12 14 15
68 69 63 64 61 60 64 55 54 48 39 38 38 36 34 48 54 50 47 45 51 48 45 44 42 39 39 46 46 46 45 35 28 31 29 28 22 18 19 19 19 17 16 17
63 58 60 52 69 65 60 59 53 48 44 45 41 33 30 35 54 59 57 54 51 54 43 38 47 37 39 45 47 52 43 38 33 32 33 31 25 20 21 20 22 24 23 23
61 55 56 47 62 67 64 54 51 46 45 46 44 42 42 43 45 64 65 64 59 56 50 59 51 45 47 40 43 45 41 39 37 35 34 35 31 27 22 23 26 23 24 26
57 48 49 50 58 63 63 54 46 45 56 56 54 51 49 48 48 45 55 71 68 66 61 57 53 60 55 46 52 50 43 39 36 40 39 40 37 33 27 27 27 25 28 31
65 58 38 38 50 56 58 54 52 52 55 51 50 51 54 55 54 52 49 43 52 73 74 73 67 59 59 63 63 62 54 46 43 44 43 43 43 39 32 31 29 31 30 38
63 55 47 35 45 59 48 53 53 65 59 58 51 48 48 50 45 46 47 44 47 49 56 71 77 77 68 64 64 71 70 64 52 45 44 43 45 42 34 33 36 32 34 44
61 44 52 46 57 59 57 53 64 60 56 54 53 48 47 50 40 40 42 45 46 50 55 56 55 53 53 70 68 66 71 68 50 47 47 46 45 40 36 40 36 36 41 46
65 44 47 47 50 50 58 53 58 52 50 51 49 46 41 46 46 45 44 44 49 47 45 45 52 53 51 47 52 64 68 65 51 45 47 47 44 41 42 39 42 41 46 49
53 61 51 45 52 40 42 56 53 55 64 42 39 42 45 46 47 46 47 51 46 45 46 45 53 54 55 53 48 49 59 58 52 50 47 46 50 45 42 41 46 46 52 50
Wind_Direction
234 238 237 246 244 229 229 227 173 173 240 251 258 263 284 318 308 268 235 214 201 188 185 181 176 176 181 183 192 191 191 204 199 179 186 189 178 180 179 220 273 303 313 321
236 247 237 237 236 224 225 233 195 181 251 270 273 296 257 304 262 271 222 192 229 214 198 194 194 193 193 208 220 220 226 222 234 223 211 219 211 213 211 235 286 297 308 312
244 239 232 232 234 230 219 222 196 197 217 220 253 247 273 290 276 246 244 227 236 242 229 204 202 201 198 204 219 229 235 243 227 229 230 228 229 230 236 244 277 297 300 306
243 223 225 227 231 233 223 213 221 197 232 270 232 245 247 263 295 290 284 294 256 256 259 257 240 231 219 219 229 240 235 245 239 234 231 241 238 235 252 275 288 297 302 311
243 235 232 233 229 229 218 206 214 208 218 252 226 219 233 258 258 265 269 269 257 251 255 258 267 271 263 256 248 251 256 258 252 240 246 245 249 246 246 266 292 303 307 308
242 236 234 228 232 224 216 210 211 212 209 240 252 242 242 247 265 257 259 274 264 235 238 237 260 275 268 274 268 261 261 265 264 253 249 248 253 258 265 277 300 314 307 313
252 249 236 224 227 222 209 212 209 213 212 223 229 252 236 227 237 258 268 261 258 258 239 259 253 298 272 257 260 263 262 257 254 253 253 255 256 262 268 284 301 312 331 307
242 240 241 240 226 236 222 218 219 215 219 226 221 232 238 235 252 273 283 260 266 261 243 241 249 271 278 273 254 245 254 256 256 254 255 255 258 260 266 280 295 312 60 82
248 244 235 237 236 227 234 232 229 226 224 227 228 229 241 254 257 263 273 284 251 261 245 221 235 283 281 269 256 241 251 265 259 252 255 255 257 261 265 272 146 26 124 110
239 241 233 236 229 230 226 237 225 226 229 229 229 223 220 237 254 258 262 264 285 272 224 226 236 276 285 273 251 244 252 261 262 263 264 263 255 255 259 237 160 148 45 341
236 240 233 228 229 229 227 223 227 230 231 233 232 230 208 219 249 254 261 275 282 283 235 256 278 282 284 277 251 246 267 265 272 279 281 267 256 242 238 200 208 200 262 314
233 233 233 236 229 232 232 234 230 233 231 230 233 242 203 208 239 265 278 264 267 270 277 281 263 266 275 259 246 250 266 263 273 275 290 285 269 225 206 204 240 249 301 292
249 238 231 226 229 229 231 228 232 234 242 241 230 245 221 202 230 236 229 228 247 222 249 250 243 250 253 240 242 249 253 260 270 271 271 272 227 175 191 235 253 276 282 305
221 247 236 230 231 219 225 229 229 232 232 237 242 239 224 203 219 252 258 253 247 231 233 232 246 245 252 236 241 234 239 257 271 275 272 238 237 219 226 242 249 262 278 302
207 215 236 234 226 216 223 222 236 232 237 234 239 237 238 205 222 237 252 250 264 204 208 206 223 237 241 242 229 222 253 261 268 273 277 238 252 237 238 257 257 250 255 292
207 213 218 236 236 221 217 210 222 243 239 242 239 237 225 221 220 241 248 248 208 206 238 211 229 236 240 244 244 248 259 258 251 258 271 253 246 255 250 255 252 268 275 284
204 209 210 225 227 225 215 219 210 220 241 245 239 237 234 223 212 219 234 237 248 210 211 227 230 237 247 261 268 268 268 264 250 247 256 263 263 252 257 248 249 256 262 284
200 205 210 220 223 218 228 211 213 210 222 239 250 244 250 229 216 214 224 239 237 233 225 217 230 233 248 256 260 264 264 262 259 245 252 259 261 252 249 247 251 254 269 293
197 199 206 213 222 224 217 212 206 206 215 222 231 244 243 233 218 214 222 229 244 240 243 233 223 228 245 249 248 256 263 261 259 246 248 255 262 260 256 253 254 263 277 289
200 198 205 206 218 218 220 214 206 211 218 210 217 224 229 232 224 220 219 224 226 230 239 244 238 238 225 236 239 246 249 254 252 242 247 255 258 257 256 256 257 267 277 286
196 198 199 205 214 218 218 211 205 209 221 222 219 223 232 237 249 242 228 224 229 231 234 240 241 246 247 238 238 240 231 243 256 245 244 250 254 258 259 254 261 269 281 281
202 197 177 195 209 219 214 216 207 209 218 224 228 227 231 237 242 248 252 249 235 233 236 237 235 241 246 249 247 251 253 247 248 243 241 245 250 254 261 259 265 265 278 278
199 199 183 176 206 211 206 211 209 214 224 225 229 230 230 235 235 238 242 242 247 246 237 242 243 241 244 243 243 251 253 253 250 233 240 244 246 249 253 258 258 271 276 279
195 197 198 188 199 201 189 198 210 223 218 223 226 232 242 238 238 243 249 253 251 248 245 246 250 242 249 244 244 247 251 253 240 236 239 244 240 245 250 252 261 267 269 279
202 197 195 191 194 196 206 204 214 212 223 219 226 232 230 237 239 246 247 250 259 259 253 251 247 248 247 240 243 244 247 251 232 234 236 239 240 240 246 253 256 256 262 262
201 199 199 197 196 205 210 210 216 223 225 227 223 227 236 235 241 246 253 258 260 258 251 247 242 240 241 241 241 240 239 240 234 232 237 235 235 238 244 248 262 264 259 267